TimeEST,TemperatureF,Dew PointF,Humidity,Sea Level PressureIn,VisibilityMPH,Wind Direction,Wind SpeedMPH,Gust SpeedMPH,PrecipitationIn,Events,Conditions,WindDirDegrees,DateUTC
12:53 AM,37.0,26.1,65,30.43,10.0,NE,4.6,-,N/A,,Clear,50,2012-11-14 05:53:00
1:53 AM,35.1,27.0,72,30.42,10.0,ENE,4.6,-,N/A,,Clear,60,2012-11-14 06:53:00
2:53 AM,34.0,27.0,75,30.43,10.0,ENE,3.5,-,N/A,,Clear,60,2012-11-14 07:53:00
3:53 AM,33.1,26.1,75,30.42,10.0,Calm,Calm,-,N/A,,Clear,0,2012-11-14 08:53:00
4:53 AM,32.0,26.1,79,30.42,10.0,Calm,Calm,-,N/A,,Clear,0,2012-11-14 09:53:00
5:53 AM,30.9,26.1,82,30.44,10.0,Calm,Calm,-,N/A,,Clear,0,2012-11-14 10:53:00
6:53 AM,30.9,26.1,82,30.45,10.0,Calm,Calm,-,N/A,,Clear,0,2012-11-14 11:53:00
7:53 AM,32.0,27.0,82,30.47,10.0,Calm,Calm,-,N/A,,Clear,0,2012-11-14 12:53:00
8:53 AM,36.0,30.0,79,30.48,10.0,Calm,Calm,-,N/A,,Clear,0,2012-11-14 13:53:00
9:53 AM,42.1,27.0,55,30.46,10.0,NE,5.8,-,N/A,,Clear,40,2012-11-14 14:53:00
10:53 AM,45.0,27.0,49,30.46,10.0,Calm,Calm,-,N/A,,Clear,0,2012-11-14 15:53:00
11:53 AM,46.0,27.0,47,30.43,10.0,Calm,Calm,-,N/A,,Clear,0,2012-11-14 16:53:00
12:53 PM,48.9,28.0,44,30.39,10.0,Variable,3.5,-,N/A,,Clear,0,2012-11-14 17:53:00
1:53 PM,50.0,28.0,43,30.37,10.0,Calm,Calm,-,N/A,,Clear,0,2012-11-14 18:53:00
2:53 PM,50.0,28.0,43,30.36,10.0,ENE,3.5,-,N/A,,Clear,70,2012-11-14 19:53:00
3:53 PM,51.1,28.0,41,30.35,10.0,Calm,Calm,-,N/A,,Clear,0,2012-11-14 20:53:00
4:53 PM,48.0,28.0,46,30.36,10.0,ENE,3.5,-,N/A,,Clear,60,2012-11-14 21:53:00
5:53 PM,46.9,30.0,52,30.35,10.0,Calm,Calm,-,N/A,,Clear,0,2012-11-14 22:53:00
6:53 PM,44.1,32.0,63,30.36,10.0,Calm,Calm,-,N/A,,Clear,0,2012-11-14 23:53:00
7:53 PM,43.0,32.0,65,30.37,10.0,Calm,Calm,-,N/A,,Clear,0,2012-11-15 00:53:00
8:53 PM,41.0,32.0,70,30.37,10.0,Calm,Calm,-,N/A,,Clear,0,2012-11-15 01:53:00
9:53 PM,39.0,33.1,79,30.35,10.0,Calm,Calm,-,N/A,,Clear,0,2012-11-15 02:53:00
10:53 PM,39.0,32.0,76,30.33,10.0,Calm,Calm,-,N/A,,Clear,0,2012-11-15 03:53:00
11:53 PM,39.0,33.1,79,30.32,10.0,Calm,Calm,-,N/A,,Clear,0,2012-11-15 04:53:00